Frederick, MD

8:41 PM EDT on October 17, 2017 (GMT -0400)
Frederick Municipal

Weather History for KFDK - February, 2014

Change the Weather History Date:

Sunday, February 23, 2014

  Actual Average (KHGR) Record (KHGR)
Temperature  
Mean Temperature 42 °F -  
Max Temperature 55 °F 42 °F 76 °F (2017)
Min Temperature 30 °F 26 °F 8 °F (2015)
Degree Days  
Heating Degree Days 22    
Moisture  
Dew Point 34 °F    
Average Humidity 83    
Maximum Humidity 100    
Minimum Humidity 41    
Precipitation  
Precipitation 0.00 in - - ()
Sea Level Pressure  
Sea Level Pressure 29.99 in    
Wind  
Wind Speed 3 mph (North)    
Max Wind Speed 10 mph    
Max Gust Speed 18 mph    
Visibility 10 miles    
Events Rain    
Averages and records for this station are not official NWS values.
T = Trace of Precipitation, MM = Missing Value Source: NWS Daily Summary

Daily Weather History Graph

Daily Weather History Graph

Search for Another Location

Airport or City:

Trip Planner

Search our weather history database for the weather conditions in past years. The results will help you decide how hot, cold, wet, or windy it might be!

Date:

Astronomy

Feb. 23, 2014 Rise Set
Actual Time 6:50 AM EST 5:55 PM EST
Civil Twilight 6:23 AM EST 6:22 PM EST
Nautical Twilight 5:52 AM EST 6:53 PM EST
Astronomical Twilight 5:21 AM EST 7:24 PM EST
Moon 1:46 AM EST (2/23) 11:56 AM EST (2/23)
Length of Visible Light 11h 58m
Length of Day
11h 04m
Last Quarter, 39% of the Moon is Illuminated
Feb 23
Last Quarter
Mar 1
New
Mar 8
First Quarter
Mar 16
Full
Mar 23
Last Quarter

Hourly Weather History & Observations

Time (EST) Temp. Windchill Dew Point Humidity Pressure Visibility Wind Dir Wind Speed Gust Speed Precip Events Conditions
12:05 AM 32.0 °F - 32.0 °F 100% 30.03 in 10.0 mi Calm Calm - N/A   Clear
12:25 AM 30.2 °F - 30.2 °F 100% 30.03 in 10.0 mi Calm Calm - N/A   Clear
12:45 AM 32.0 °F - 32.0 °F 100% 30.03 in 10.0 mi Calm Calm - N/A   Clear
1:05 AM 32.0 °F - 32.0 °F 100% 30.03 in 10.0 mi Calm Calm - N/A   Clear
1:25 AM 32.0 °F - 32.0 °F 100% 30.02 in 10.0 mi Calm Calm - N/A   Clear
1:45 AM 30.2 °F - 30.2 °F 100% 30.02 in 10.0 mi Calm Calm - N/A   Clear
2:05 AM 32.0 °F - 32.0 °F 100% 30.02 in 10.0 mi Calm Calm - N/A   Clear
2:25 AM 30.2 °F - 30.2 °F 100% 30.02 in 10.0 mi Calm Calm - N/A   Clear
2:45 AM 30.2 °F - 30.2 °F 100% 30.01 in 10.0 mi Calm Calm - N/A   Clear
3:05 AM 32.0 °F - 32.0 °F 100% 30.01 in 10.0 mi Calm Calm - N/A   Clear
3:25 AM 32.0 °F - 32.0 °F 100% 30.01 in 10.0 mi Calm Calm - N/A   Clear
3:45 AM 32.0 °F - 32.0 °F 100% 30.01 in 10.0 mi Calm Calm - N/A   Clear
4:05 AM 32.0 °F - 32.0 °F 100% 30.02 in 10.0 mi Calm Calm - N/A   Clear
4:25 AM 32.0 °F 27.5 °F 32.0 °F 100% 30.02 in 10.0 mi SE 4.6 mph - N/A   Clear
4:45 AM 33.8 °F 29.6 °F 32.0 °F 93% 30.02 in 10.0 mi SE 4.6 mph - N/A   Clear
5:05 AM 32.0 °F - 32.0 °F 100% 30.02 in 10.0 mi Calm Calm - N/A   Clear
5:25 AM 32.0 °F 28.7 °F 32.0 °F 100% 30.02 in 10.0 mi SSE 3.5 mph - N/A   Clear
5:35 AM 33.8 °F 29.6 °F 32.0 °F 93% 30.02 in 10.0 mi South 4.6 mph - N/A   Clear
7:45 AM 35.6 °F - 33.8 °F 93% 30.04 in 10.0 mi Calm Calm - N/A   Mostly Cloudy
8:45 AM 37.4 °F - 33.8 °F 87% 30.05 in 10.0 mi Calm Calm - N/A   Mostly Cloudy
10:45 AM 44.6 °F 40.7 °F 30.2 °F 57% 30.04 in 10.0 mi North 6.9 mph - N/A   Clear
11:45 AM 48.2 °F - 33.8 °F 58% 30.00 in 10.0 mi North 9.2 mph - N/A   Clear
12:45 PM 50.0 °F - 33.8 °F 54% 29.98 in 10.0 mi NNE 9.2 mph - N/A   Clear
1:47 PM 51.8 °F - 30.2 °F 44% 29.96 in 10.0 mi NE 6.9 mph - N/A   Clear
2:55 PM 53.6 °F - 33.8 °F 47% 29.94 in 10.0 mi NE 4.6 mph - N/A   Clear
3:45 PM 55.4 °F - 32.0 °F 41% 29.93 in 10.0 mi Calm Calm - N/A   Clear
4:50 PM 55.4 °F - 33.8 °F 44% 29.92 in 10.0 mi Calm Calm - N/A   Clear
5:50 PM 48.2 °F - 35.6 °F 62% 29.94 in 10.0 mi North 9.2 mph - N/A   Mostly Cloudy
6:55 PM 48.2 °F - 35.6 °F 62% 29.96 in 10.0 mi North 10.4 mph - N/A   Overcast
7:45 PM 46.4 °F 42.4 °F 37.4 °F 71% 29.98 in 10.0 mi NNW 8.1 mph - N/A   Overcast
7:55 PM 46.4 °F 42.4 °F 39.2 °F 76% 29.98 in 10.0 mi NNW 8.1 mph - N/A   Mostly Cloudy
8:05 PM 44.6 °F 40.2 °F 37.4 °F 76% 29.97 in 10.0 mi NNW 8.1 mph - N/A   Overcast
8:25 PM 44.6 °F 40.2 °F 37.4 °F 76% 29.97 in 10.0 mi NNW 8.1 mph - N/A Rain Light Rain
8:45 PM 44.6 °F 39.7 °F 37.4 °F 76% 29.97 in 10.0 mi NNW 9.2 mph 18.4 mph N/A   Overcast
9:05 PM 42.8 °F 38.0 °F 37.4 °F 81% 29.97 in 10.0 mi NNW 8.1 mph - N/A   Light Drizzle
9:25 PM 42.8 °F 38.0 °F 37.4 °F 81% 29.97 in 10.0 mi NNW 8.1 mph - N/A Rain Light Rain
9:45 PM 42.8 °F 37.0 °F 37.4 °F 81% 29.97 in 10.0 mi North 10.4 mph - N/A Rain Light Rain
10:05 PM 42.8 °F 38.0 °F 37.4 °F 81% 29.97 in 10.0 mi North 8.1 mph - N/A   Light Drizzle
10:25 PM 41.0 °F 34.7 °F 37.4 °F 87% 29.98 in 10.0 mi NW 10.4 mph - N/A Rain Light Rain
10:50 PM 41.0 °F 35.8 °F 37.4 °F 87% 29.98 in 10.0 mi NNW 8.1 mph - N/A   Light Drizzle
11:10 PM 41.0 °F 36.4 °F 35.6 °F 81% 29.98 in 10.0 mi NNW 6.9 mph - N/A Rain Light Rain
11:30 PM 39.2 °F 33.6 °F 35.6 °F 87% 29.97 in 10.0 mi NNW 8.1 mph - N/A Rain Light Rain
11:50 PM 39.2 °F - 35.6 °F 87% 29.97 in 10.0 mi Calm Calm - N/A   Overcast